Погода в Екатериновке

Россия / Самарская область     53°05′15″N   49°27′07″E
темп.,
°C
ветер,
м/с
пор.,
м/с
влажн.,
%
обл.,
%
осадки,
мм/ч
давл.,
гПа
погр.,
м
18 апреля, вс
вс1801:00+12всв511580 0.0 1018292
04:00+10всв5106274 0.0 1018278
07:00+10всв4964100 0.1 1018379
10:00+13всв6749100 0.5 1018638
13:00+16всв674195 0.1 10181126
16:00+17всв673961 0.1 10171477
19:00+15всв6942100 0.0 1017606
22:00+13всв71343100 0.0 1018677
19 апреля, пн
пн1901:00+10всв81363100 0.0 1020595
04:00+8всв71364100 0.0 1020551
07:00+6всв7137097 0.0 1020568
10:00+9всв81063100 0.0 1021792
13:00+11в7855100 0.1 10211223
16:00+11в61057100 0.1 10221566
19:00+9вюв71164100 0.0 10231211
22:00+5вюв71284100 0.2 1026836
20 апреля, вт
вт2001:00+5вюв71380100 0.0 1026820
04:00+6вюв71154100 0.0 1027926
07:00+4в8135199 0.0 1029736
10:00+6вюв911411 0.0 10291001
13:00+9вюв911350 0.0 10291359
16:00+11вюв8103072 0.0 10281482
19:00+9вюв7113798 0.0 10281148
22:00+6вюв8154192 0.0 1028818
21 апреля, ср
ср2101:00+5вюв81645100 0.0 1027835
04:00+4юв81648100 0.0 1028739
07:00+3вюв81649100 0.0 1027664
10:00+6юв91542100 0.0 1027801
13:00+8юв91439100 0.0 1026989
16:00+9ююв71343100 0.2 10261164
19:00+7ююв61259100 0.2 10271045
22:00+6ююв51380100 0.9 1028976
22 апреля, чт
чт2201:00+6ююв51276100 0.5 1028951
04:00+6ююв61177100 0.7 1028723
07:00+5ююв61190100 2.8 1029699
10:00+6ююв5986100 3.5 1029663
13:00+6ююв5987100 0.0 1030600
16:00+5ююв5985100 0.2 1031519
19:00+5ююв4889100 0.6 1031396
22:00+5ююв4790100 0.9 1031372